TimeCDT,TemperatureF,Dew PointF,Humidity,Sea Level PressureIn,VisibilityMPH,Wind Direction,Wind SpeedMPH,Gust SpeedMPH,PrecipitationIn,Events,Conditions,WindDirDegrees,DateUTC
12:54 AM,68.0,64.0,87,29.96,10.0,East,4.6,-,N/A,,Scattered Clouds,80,2013-07-21 05:54:00
1:54 AM,66.9,63.0,87,29.96,10.0,East,3.5,-,N/A,,Scattered Clouds,80,2013-07-21 06:54:00
2:54 AM,66.0,62.1,87,29.96,10.0,East,5.8,-,N/A,,Scattered Clouds,80,2013-07-21 07:54:00
3:54 AM,64.9,61.0,87,29.96,10.0,ENE,3.5,-,N/A,,Scattered Clouds,70,2013-07-21 08:54:00
4:54 AM,64.9,60.1,84,29.95,10.0,East,4.6,-,N/A,,Scattered Clouds,100,2013-07-21 09:54:00
5:54 AM,64.9,60.1,84,29.97,10.0,Calm,Calm,-,N/A,,Mostly Cloudy,0,2013-07-21 10:54:00
6:54 AM,66.0,61.0,84,29.97,10.0,ESE,4.6,-,N/A,,Mostly Cloudy,110,2013-07-21 11:54:00
7:54 AM,71.1,63.0,75,29.97,10.0,ESE,6.9,-,N/A,,Mostly Cloudy,110,2013-07-21 12:54:00
8:54 AM,73.0,64.0,73,29.97,10.0,SE,5.8,-,N/A,,Scattered Clouds,130,2013-07-21 13:54:00
9:54 AM,77.0,66.0,69,29.96,10.0,ESE,3.5,-,N/A,,Scattered Clouds,110,2013-07-21 14:54:00
10:54 AM,81.0,66.9,62,29.96,10.0,SE,8.1,-,N/A,,Scattered Clouds,130,2013-07-21 15:54:00
11:54 AM,82.9,66.9,58,29.96,10.0,South,5.8,-,N/A,,Scattered Clouds,190,2013-07-21 16:54:00
12:54 PM,84.9,66.0,53,29.94,10.0,South,6.9,-,N/A,,Mostly Cloudy,170,2013-07-21 17:54:00
1:54 PM,86.0,66.9,53,29.92,10.0,ESE,10.4,20.7,N/A,,Mostly Cloudy,120,2013-07-21 18:54:00
2:54 PM,82.9,66.9,58,29.90,10.0,SSE,9.2,-,N/A,,Mostly Cloudy,160,2013-07-21 19:54:00
3:54 PM,84.0,66.9,56,29.88,10.0,South,12.7,-,0.00,,Mostly Cloudy,190,2013-07-21 20:54:00
4:54 PM,81.0,63.0,54,29.87,10.0,South,4.6,-,N/A,,Overcast,180,2013-07-21 21:54:00
5:54 PM,80.1,66.9,64,29.89,10.0,NNW,5.8,-,N/A,,Overcast,340,2013-07-21 22:54:00
6:54 PM,73.0,63.0,71,29.91,10.0,NNE,18.4,-,N/A,,Overcast,20,2013-07-21 23:54:00
7:54 PM,70.0,62.1,76,29.92,10.0,NE,10.4,-,N/A,,Overcast,50,2013-07-22 00:54:00
8:54 PM,68.0,63.0,84,29.92,10.0,East,9.2,18.4,N/A,,Overcast,90,2013-07-22 01:54:00
9:54 PM,68.0,63.0,84,29.93,10.0,ESE,8.1,-,N/A,,Overcast,110,2013-07-22 02:54:00
10:54 PM,68.0,63.0,84,29.91,10.0,East,3.5,-,N/A,,Overcast,100,2013-07-22 03:54:00
11:54 PM,66.9,63.0,87,29.91,10.0,East,3.5,-,N/A,,Overcast,80,2013-07-22 04:54:00